New York JFK, NY

4:29 AM EDT on May 23, 2017 (GMT -0400)
Kennedy International

Weather History for KJFK - September, 2012

Change the Weather History Date:

Monday, September 10, 2012

  Actual Average Record
Temperature  
Mean Temperature 67 °F 70 °F  
Max Temperature 75 °F 77 °F 98 °F (1983)
Min Temperature 59 °F 63 °F 50 °F (1978)
Degree Days  
Heating Degree Days 0 0  
Month to date heating degree days 0 0  
Since 1 July heating degree days 0 1  
Cooling Degree Days 2 6  
Month to date cooling degree days 101 67  
Year to date cooling degree days 1169 928  
Growing Degree Days 18 (Base 50)    
Moisture  
Dew Point 46 °F    
Average Humidity 53    
Maximum Humidity 73    
Minimum Humidity 33    
Precipitation  
Precipitation 0.00 in 0.10 in 1.18 in (2015)
Month to date precipitation 1.67 1.06  
Year to date precipitation 28.75 30.02  
Snow  
Snow 0.00 in 0.00 in - ()
Month to date snowfall 0.0 0.0  
Since 1 July snowfall 0.0 0.0  
Snow Depth 0.00 in    
Sea Level Pressure  
Sea Level Pressure 30.00 in    
Wind  
Wind Speed 14 mph (NNW)    
Max Wind Speed 24 mph    
Max Gust Speed 33 mph    
Visibility 10 miles    
Events      
T = Trace of Precipitation, MM = Missing Value Source: NWS Daily Summary

Daily Weather History Graph

Daily Weather History Graph

Search for Another Location

Airport or City:

Trip Planner

Search our weather history database for the weather conditions in past years. The results will help you decide how hot, cold, wet, or windy it might be!

Date:

Astronomy

Sep. 10, 2012 Rise Set
Actual Time 6:31 AM EDT 7:11 PM EDT
Civil Twilight 6:03 AM EDT 7:39 PM EDT
Nautical Twilight 5:31 AM EDT 8:11 PM EDT
Astronomical Twilight 4:57 AM EDT 8:45 PM EDT
Moon 12:48 AM EDT (9/10) 3:40 PM EDT (9/10)
Length of Visible Light 13h 35m
Length of Day
12h 40m
Waning Crescent, 30% of the Moon is Illuminated
Sep 10
Waning Crescent
Sep 15
New
Sep 22
First Quarter
Sep 29
Full
Oct 8
Last Quarter

Hourly Weather History & Observations

Time (EDT) Temp. Dew Point Humidity Pressure Visibility Wind Dir Wind Speed Gust Speed Precip Events Conditions
12:51 AM 66.0 °F 54.0 °F 65% 29.90 in 10.0 mi North 9.2 mph - N/A   Partly Cloudy
1:51 AM 64.0 °F 55.0 °F 73% 29.90 in 10.0 mi North 9.2 mph - N/A   Partly Cloudy
2:51 AM 64.0 °F 53.1 °F 67% 29.89 in 10.0 mi North 8.1 mph - N/A   Partly Cloudy
3:51 AM 63.0 °F 52.0 °F 67% 29.90 in 10.0 mi North 10.4 mph - N/A   Clear
4:51 AM 61.0 °F 51.1 °F 70% 29.91 in 10.0 mi NNW 11.5 mph - N/A   Partly Cloudy
5:51 AM 61.0 °F 51.1 °F 70% 29.92 in 10.0 mi NNW 11.5 mph - N/A   Partly Cloudy
6:51 AM 60.1 °F 50.0 °F 69% 29.96 in 10.0 mi NNW 13.8 mph - N/A   Partly Cloudy
7:51 AM 63.0 °F 51.1 °F 65% 29.99 in 10.0 mi North 12.7 mph - N/A   Scattered Clouds
8:51 AM 66.0 °F 51.1 °F 59% 29.99 in 10.0 mi NNW 11.5 mph - N/A   Partly Cloudy
9:51 AM 68.0 °F 46.9 °F 47% 30.01 in 10.0 mi NNW 17.3 mph 23.0 mph N/A   Partly Cloudy
10:51 AM 70.0 °F 48.0 °F 46% 30.01 in 10.0 mi NNW 15.0 mph - N/A   Partly Cloudy
11:51 AM 72.0 °F 46.0 °F 40% 30.00 in 10.0 mi NNW 17.3 mph 25.3 mph N/A   Partly Cloudy
12:51 PM 73.0 °F 44.1 °F 35% 29.99 in 10.0 mi North 16.1 mph 25.3 mph N/A   Partly Cloudy
1:51 PM 73.0 °F 46.0 °F 38% 29.98 in 10.0 mi NNW 19.6 mph 26.5 mph N/A   Scattered Clouds
2:51 PM 71.1 °F 42.1 °F 35% 29.97 in 10.0 mi NNW 19.6 mph 27.6 mph N/A   Scattered Clouds
3:51 PM 73.9 °F 43.0 °F 33% 29.97 in 10.0 mi NNW 23.0 mph 27.6 mph N/A   Scattered Clouds
4:51 PM 72.0 °F 42.1 °F 34% 29.98 in 10.0 mi NNW 16.1 mph 27.6 mph N/A   Scattered Clouds
5:51 PM 71.1 °F 41.0 °F 34% 30.01 in 10.0 mi NNW 19.6 mph 33.4 mph N/A   Partly Cloudy
6:51 PM 68.0 °F 39.9 °F 36% 30.03 in 10.0 mi NNW 16.1 mph - N/A   Scattered Clouds
7:51 PM 66.9 °F 39.0 °F 36% 30.05 in 10.0 mi North 13.8 mph 21.9 mph N/A   Partly Cloudy
8:51 PM 66.0 °F 39.9 °F 38% 30.08 in 10.0 mi NNW 13.8 mph - N/A   Partly Cloudy
9:51 PM 64.0 °F 43.0 °F 46% 30.11 in 10.0 mi North 10.4 mph - N/A   Partly Cloudy
10:51 PM 62.1 °F 43.0 °F 50% 30.13 in 10.0 mi North 11.5 mph - N/A   Partly Cloudy
11:51 PM 61.0 °F 42.1 °F 50% 30.15 in 10.0 mi North 15.0 mph 20.7 mph N/A   Clear